90P/Gehrels 1 (2002)

Japanese version
Home page
Updated on September 29, 2004

---------------------------------------------------------------------

* Profile

* Orbital Elements

Epoch 2002 June 15.0 TT = JDT 2452440.5
T 2002 June 22.9685 TT                                  MPCN
q   2.965662             (2000.0)            P               Q
n   0.0664298      Peri.   28.1935      +0.7479665      -0.6625857
a   6.038016       Node    13.5258      +0.5732536      +0.6152117
e   0.508835       Incl.    9.6160      +0.3345541      +0.4271940
P  14.8
From 52 observations 1972-2001, mean residual 0".9.

* Finding Charts

* Magnitudes Graph

        m1 = 4.5 + 5 log d + 22 log r(t - 130)

---------------------------------------------------------------------

The orbital elements are published at the MPC Ephemerides and Orbital Elements.
The charts are made with StellaNavigator Ver.2.0 for Windows (AstroArts / ASCII).
The magnitudes graphs are made with Comet for Windows.

---------------------------------------------------------------------

Copyright(C) Seiichi Yoshida (comet@aerith.net). All rights reserved.